Location: Middle Street
(51.7167°N, 0.0333°E)
Time: 02:27:21
(UTC+00:00)

NOSS 7 (H) - Pass Details

Date: 20 January 2021
Orbit: 369 x 1788 km, 63.3° (Epoch: 28 February)

Event Time Altitude Azimuth Distance (km) Brightness Sun altitude
Rises 17:28:07 0° 223° (SW) 2,502 9.5 -9.2°
Reaches altitude 10° 17:30:23 10° 223° (SW) 1,512 8.2 -9.5°
Maximum altitude 17:33:35 87° 132° (SE) 389 4.0 -10.0°
Enters shadow 17:35:58 14° 46° (NE) 1,152 5.9 -10.3°
